When you browse on this site, cookies collect data to enhance your experience and personalize the content and advertising you see.
Visit our Privacy Policy to learn more. By continuing to use the site, you agree to this use of cookies and data.
  • In Romania
  • List of Countries
  • For 7 days
  • Water Temperature
  • Weather Map
  • Weather Widgets
  • user-avatar
    Login

    Hourly Weather Dori

    Today, 19 January, Sunday

    Time Temperature Precipitation Wind Pressure Humidity
    00:00 +20°C° 0 mm 5 mps 737 mmHg 19%
    01:00 +20°C° 0 mm 4 mps 736 mmHg 20%
    02:00 +19°C° 0 mm 4 mps 736 mmHg 22%
    03:00 +18°C° 0 mm 4 mps 736 mmHg 24%
    04:00 +17°C° 0 mm 4 mps 736 mmHg 25%
    05:00 +17°C° 0 mm 4 mps 736 mmHg 27%
    06:00 +17°C° 0 mm 4 mps 736 mmHg 28%
    07:00 +19°C° 0 mm 5 mps 737 mmHg 26%
    08:00 +21°C° 0 mm 6 mps 737 mmHg 25%
    09:00 +23°C° 0 mm 7 mps 738 mmHg 23%
    10:00 +26°C° 0 mm 7 mps 737 mmHg 20%
    11:00 +28°C° 0 mm 7 mps 737 mmHg 18%
    12:00 +30°C° 0 mm 7 mps 736 mmHg 15%
    13:00 +32°C° 0 mm 7 mps 736 mmHg 14%
    14:00 +33°C° 0 mm 6 mps 735 mmHg 13%
    15:00 +34°C° 0 mm 5 mps 734 mmHg 12%
    16:00 +32°C° 0 mm 4 mps 734 mmHg 14%
    17:00 +28°C° 0 mm 4 mps 734 mmHg 15%
    18:00 +26°C° 0 mm 3 mps 734 mmHg 17%
    19:00 +25°C° 0 mm 3 mps 734 mmHg 18%
    20:00 +24°C° 0 mm 3 mps 735 mmHg 20%
    21:00 +22°C° 0 mm 3 mps 735 mmHg 21%
    22:00 +22°C° 0 mm 3 mps 735 mmHg 22%
    23:00 +21°C° 0 mm 3 mps 735 mmHg 23%

    Tomorrow, 20 January, Monday

    Time Temperature Precipitation Wind Pressure Humidity
    00:00 +20°C° 0 mm 3 mps 735 mmHg 24%
    01:00 +20°C° 0 mm 3 mps 734 mmHg 25%
    02:00 +20°C° 0 mm 3 mps 734 mmHg 26%
    03:00 +19°C° 0 mm 3 mps 734 mmHg 27%
    04:00 +19°C° 0 mm 3 mps 734 mmHg 27%
    05:00 +19°C° 0 mm 4 mps 734 mmHg 28%
    06:00 +19°C° 0 mm 4 mps 734 mmHg 29%
    07:00 +21°C° 0 mm 4 mps 734 mmHg 27%
    08:00 +23°C° 0 mm 5 mps 735 mmHg 24%
    09:00 +26°C° 0 mm 6 mps 735 mmHg 22%
    10:00 +28°C° 0 mm 5 mps 735 mmHg 19%
    11:00 +30°C° 0 mm 5 mps 734 mmHg 17%
    12:00 +33°C° 0 mm 5 mps 734 mmHg 14%
    13:00 +34°C° 0 mm 4 mps 733 mmHg 13%
    14:00 +35°C° 0 mm 3 mps 733 mmHg 12%
    15:00 +36°C° 0 mm 2 mps 732 mmHg 11%
    16:00 +32°C° 0 mm 1 mps 732 mmHg 14%
    17:00 +29°C° 0 mm 1 mps 732 mmHg 17%
    18:00 +23°C° 0 mm 0 mps 732 mmHg 21%
    19:00 +26°C° 0 mm 1 mps 732 mmHg 20%
    20:00 +26°C° 0 mm 2 mps 733 mmHg 19%
    21:00 +27°C° 0 mm 3 mps 734 mmHg 19%
    22:00 +26°C° 0 mm 3 mps 734 mmHg 19%
    23:00 +26°C° 0 mm 3 mps 734 mmHg 20%

    Day after tomorrow, 21 January, Tuesday

    Time Temperature Precipitation Wind Pressure Humidity
    00:00 +25°C° 0 mm 3 mps 734 mmHg 21%
    01:00 +25°C° 0 mm 3 mps 733 mmHg 21%
    02:00 +24°C° 0 mm 3 mps 733 mmHg 22%
    03:00 +24°C° 0 mm 3 mps 733 mmHg 23%
    04:00 +22°C° 0 mm 3 mps 733 mmHg 24%
    05:00 +22°C° 0 mm 3 mps 734 mmHg 25%
    06:00 +22°C° 0 mm 3 mps 734 mmHg 26%
    07:00 +25°C° 0 mm 4 mps 735 mmHg 23%
    08:00 +27°C° 0 mm 5 mps 735 mmHg 21%
    09:00 +29°C° 0 mm 6 mps 736 mmHg 19%
    10:00 +33°C° 0 mm 6 mps 736 mmHg 17%
    11:00 +35°C° 0 mm 6 mps 735 mmHg 15%
    12:00 +38°C° 0 mm 6 mps 735 mmHg 13%
    13:00 +39°C° 0 mm 5 mps 734 mmHg 12%
    14:00 +40°C° 0 mm 4 mps 734 mmHg 12%
    15:00 +39°C° 0 mm 3 mps 733 mmHg 11%
    16:00 +37°C° 0 mm 3 mps 733 mmHg 13%
    17:00 +35°C° 0 mm 3 mps 733 mmHg 15%
    18:00 +33°C° 0 mm 3 mps 733 mmHg 17%
    19:00 +31°C° 0 mm 3 mps 733 mmHg 18%
    20:00 +30°C° 0 mm 3 mps 734 mmHg 18%
    21:00 +29°C° 0 mm 4 mps 734 mmHg 19%
    22:00 +28°C° 0 mm 4 mps 734 mmHg 20%
    23:00 +28°C° 0 mm 4 mps 734 mmHg 21%

    22 January, Wednesday

    Time Temperature Precipitation Wind Pressure Humidity
    00:00 +27°C° 0 mm 4 mps 734 mmHg 22%
    01:00 +27°C° 0 mm 4 mps 734 mmHg 22%
    02:00 +26°C° 0 mm 4 mps 734 mmHg 23%
    03:00 +25°C° 0 mm 4 mps 733 mmHg 23%
    04:00 +25°C° 0 mm 4 mps 734 mmHg 23%
    05:00 +25°C° 0 mm 4 mps 734 mmHg 23%
    06:00 +25°C° 0 mm 4 mps 734 mmHg 23%
    07:00 +27°C° 0 mm 5 mps 735 mmHg 21%
    08:00 +29°C° 0 mm 6 mps 736 mmHg 18%
    09:00 +32°C° 0 mm 8 mps 736 mmHg 15%
    10:00 +34°C° 0 mm 8 mps 736 mmHg 14%
    11:00 +38°C° 0 mm 8 mps 736 mmHg 12%
    12:00 +40°C° 0 mm 7 mps 735 mmHg 10%
    13:00 +40°C° 0 mm 7 mps 735 mmHg 9%
    14:00 +41°C° 0 mm 6 mps 734 mmHg 9%
    15:00 +41°C° 0 mm 6 mps 733 mmHg 8%
    16:00 +39°C° 0 mm 5 mps 733 mmHg 9%
    17:00 +36°C° 0 mm 5 mps 733 mmHg 10%
    18:00 +34°C° 0 mm 4 mps 734 mmHg 11%
    19:00 +32°C° 0 mm 4 mps 734 mmHg 12%
    20:00 +30°C° 0 mm 4 mps 734 mmHg 13%
    21:00 +29°C° 0 mm 4 mps 735 mmHg 13%
    22:00 +28°C° 0 mm 4 mps 735 mmHg 14%
    23:00 +27°C° 0 mm 4 mps 735 mmHg 14%

    23 January, Thursday

    Time Temperature Precipitation Wind Pressure Humidity
    00:00 +26°C° 0 mm 4 mps 735 mmHg 14%
    01:00 +26°C° 0 mm 4 mps 735 mmHg 15%
    02:00 +25°C° 0 mm 4 mps 734 mmHg 15%
    03:00 +25°C° 0 mm 4 mps 734 mmHg 15%
    04:00 +23°C° 0 mm 4 mps 734 mmHg 15%
    05:00 +23°C° 0 mm 4 mps 734 mmHg 15%
    06:00 +22°C° 0 mm 5 mps 735 mmHg 15%
    07:00 +24°C° 0 mm 6 mps 735 mmHg 13%
    08:00 +27°C° 0 mm 7 mps 736 mmHg 11%
    09:00 +29°C° 0 mm 9 mps 737 mmHg 9%
    10:00 +32°C° 0 mm 9 mps 736 mmHg 8%
    11:00 +35°C° 0 mm 9 mps 736 mmHg 7%
    12:00 +38°C° 0 mm 8 mps 735 mmHg 6%
    13:00 +38°C° 0 mm 8 mps 735 mmHg 6%
    14:00 +39°C° 0 mm 8 mps 734 mmHg 6%
    15:00 +39°C° 0 mm 8 mps 733 mmHg 5%
    16:00 +36°C° 0 mm 6 mps 733 mmHg 6%
    17:00 +34°C° 0 mm 5 mps 734 mmHg 7%
    18:00 +32°C° 0 mm 4 mps 734 mmHg 8%
    19:00 +30°C° 0 mm 4 mps 734 mmHg 8%
    20:00 +29°C° 0 mm 4 mps 735 mmHg 8%
    21:00 +27°C° 0 mm 4 mps 735 mmHg 8%
    22:00 +27°C° 0 mm 4 mps 735 mmHg 8%
    23:00 +26°C° 0 mm 4 mps 735 mmHg 9%

    24 January, Friday

    Time Temperature Precipitation Wind Pressure Humidity
    00:00 +25°C° 0 mm 4 mps 735 mmHg 9%
    01:00 +23°C° 0 mm 4 mps 735 mmHg 9%
    02:00 +23°C° 0 mm 4 mps 735 mmHg 9%
    03:00 +22°C° 0 mm 4 mps 734 mmHg 10%
    04:00 +22°C° 0 mm 4 mps 735 mmHg 10%
    05:00 +21°C° 0 mm 5 mps 735 mmHg 11%
    06:00 +20°C° 0 mm 5 mps 735 mmHg 11%
    07:00 +23°C° 0 mm 6 mps 736 mmHg 10%
    08:00 +26°C° 0 mm 7 mps 736 mmHg 9%
    09:00 +28°C° 0 mm 9 mps 737 mmHg 8%
    10:00 +31°C° 0 mm 9 mps 736 mmHg 7%
    11:00 +33°C° 0 mm 8 mps 736 mmHg 7%
    12:00 +35°C° 0 mm 8 mps 736 mmHg 6%
    13:00 +37°C° 0 mm 8 mps 735 mmHg 5%
    14:00 +38°C° 0 mm 8 mps 734 mmHg 5%
    15:00 +39°C° 0 mm 8 mps 734 mmHg 5%
    16:00 +36°C° 0 mm 7 mps 734 mmHg 5%
    17:00 +34°C° 0 mm 6 mps 734 mmHg 6%
    18:00 +32°C° 0 mm 5 mps 734 mmHg 7%
    19:00 +30°C° 0 mm 5 mps 734 mmHg 7%
    20:00 +28°C° 0 mm 4 mps 735 mmHg 8%
    21:00 +27°C° 0 mm 4 mps 735 mmHg 9%
    22:00 +26°C° 0 mm 4 mps 735 mmHg 9%
    23:00 +26°C° 0 mm 5 mps 735 mmHg 9%
    Show more